Regional Weather Roundup
Issued by NWS

Current Version | Previous Version | Text Only | Print | Product List | Glossary On
Versions: 1 2 3 4 5 6 7 8 9 10 11 12 13 14 15 16 17 18 19 20 21 22 23 24 25 26 27 28 29 30 31 32 33 34 35 36 37 38 39 40 41 42 43 44 45 46 47 48 49 50
000
ASUS44 KMEG 020610
RWRTN
TENNESSEE HOURLY STATE WEATHER ROUNDUP
NATIONAL WEATHER SERVICE MEMPHIS TN
100 AM CDT MON MAY 02 2016

TNZ002-004-019-021-049-052-054-088>092-020700-
WEST TENNESSEE

CITY           SKY/WX    TMP DP  RH WIND       PRES   REMARKS
MEMPHIS INTL   CLOUDY    71  66  84 CALM      29.97S
NWS MEMPHIS      N/A     66 N/A N/A MISG        N/A
JACKSON        CLOUDY    65  63  93 CALM      29.97S
DYERSBURG      PTCLDY    66  63  88 NW6         N/A
UNION CITY     CLEAR     64  61  88 N9        29.97R
LEXINGTON      CLOUDY    64  63  94 CALM      29.96F
$$

TNZ008-025-027-028-033-062-065-066-020700-
NORTH MIDDLE TENNESSEE

CITY           SKY/WX    TMP DP  RH WIND       PRES   REMARKS
NASHVILLE      CLEAR     67  62  84 CALM      29.97S
CLARKSVILLE    PTCLDY    65  62  90 SW3       29.96S
SMYRNA         CLEAR     64  62  93 S5        29.98S
COOKEVILLE     CLEAR     63  61  94 SW5       29.99S
CROSSVILLE     PTCLDY    66  59  78 W5        30.03S
$$

TNZ061-075-076-078-094-096-097-020700-
SOUTH MIDDLE TENNESSEE

CITY           SKY/WX    TMP DP  RH WIND       PRES   REMARKS
FAYETTEVILLE   CLEAR     63  61  94 S5        30.00F
TULLAHOMA      CLEAR     61  61 100 S3        30.01F
WINCHESTER     PTCLDY    57  57 100 CALM      30.01F
MCMINNVILLE    CLEAR     63  63 100 S3        30.00S
COLUMBIA       CLEAR    N/A N/A N/A CALM      29.97S
SHELBYVILLE    CLEAR     63  63 100 SE3       30.00S
$$

TNZ017-018-042-046-047-020700-
NORTHEAST TENNESSEE

CITY           SKY/WX    TMP DP  RH WIND       PRES   REMARKS
TRI CITIES     PTCLDY    66  61  84 SW5       30.00R
$$

TNZ012-013-036-069-073-074-020700-
CENTRAL EAST TENNESSEE

CITY           SKY/WX    TMP DP  RH WIND       PRES   REMARKS
KNOXVILLE      CLEAR     67  63  87 SW5       29.98F
OAK RIDGE      PTCLDY    67  63  87 CALM      29.99F
GATLINBURG     CLEAR     63  61  94 CALM      29.99S
MORRISTOWN     MOCLDY    68  64  88 SW7       29.99S
$$

TNZ083-085-099-020700-
SOUTHEAST TENNESSEE

CITY           SKY/WX    TMP DP  RH WIND       PRES   REMARKS
CHATTANOOGA    PTCLDY    66  63  90 CALM      30.01R
$$

SKY/WX REPORTED AS FAIR MEANS FEW OR NO CLOUDS BELOW
12 THOUSAND FEET.





USA.gov is the U.S. government's official web portal to all federal, state and local government web resources and services.